Regional Weather Roundup
Issued by NWS Newport/Morehead, NC

Current Version | Previous Version | Text Only | Print | Product List | Glossary On
Versions: 1 2 3 4 5 6 7 8 9 10 11 12 13 14 15 16 17 18 19 20 21 22 23 24 25 26 27 28 29 30 31 32 33 34 35 36 37 38 39 40 41 42 43 44 45 46 47 48 49 50
000
ASUS42 KMHX 290222
RWRMHX
WEATHER ROUNDUP FOR EASTERN NORTH CAROLINA
NATIONAL WEATHER SERVICE NEWPORT/MOREHEAD CITY NC
900 PM EST SUN DEC 28 2014

NOTE: "FAIR" INDICATES FEW OR NO CLOUDS BELOW 12,000 FEET
WITH NO SIGNIFICANT WEATHER AND/OR OBSTRUCTIONS TO VISIBILITY

NCZ015>017-031-032-045>047-102-103-290300-
NORTH COAST

CITY           SKY/WX    TMP DP  RH WIND       PRES   REMARKS
EDENTON        CLOUDY    58  57  95 S5        30.03S
ELIZABETH CITY CLOUDY    63  58  83 S3        30.02F
KITTY HAWK     CLOUDY    57  57  99 CALM      30.04S
MANTEO         CLOUDY    57  57 100 W3        30.06S

$$

NCZ045>047-081-094-103-104-290300-
CENTRAL COAST

CITY           SKY/WX    TMP DP  RH WIND       PRES   REMARKS
FRISCO         CLOUDY    57  56  96 NW3       30.06S
SWANQUARTER      N/A     61 N/A N/A NW2       30.03S

$$

NCZ095-097-098-100-101-290300-
SOUTHERN COAST

CITY           SKY/WX    TMP DP  RH WIND       PRES   REMARKS
BEAUFORT       CLOUDY    61  59  93 S5        30.06F
CEDAR ISLAND     N/A     61 N/A N/A W1        30.09S
JACKSONVILLE   CLOUDY    63  58  83 CALM      30.06R
PINEY ISLAND   CLOUDY    62  56  80 W3        30.06S
WILMINGTON     CLOUDY    64  62  93 SW3       30.06S


$$

NCZ011>013-027>030-043-044-078>080-089-090>093-098-290300-
COASTAL PLAIN

CITY           SKY/WX    TMP DP  RH WIND       PRES   REMARKS
AHOSKIE        CLOUDY    56  55  97 CALM      30.04S FOG
CLINTON        FOG       60  60 100 CALM      30.07R VSB 3/4
ELIZABETHTOWN  CLOUDY    64  61  91 CALM      30.07R
GOLDSBORO      CLOUDY    59  59 100 S3        30.03S FOG
GREENVILLE     CLOUDY    59  59 100 CALM      30.06S FOG
HAVELOCK       MOCLDY    63  58  83 E3        30.06F
KENANSVILLE    CLOUDY    60  60  97 CALM      30.07R FOG
KINSTON        CLOUDY    59  59  99 S3        30.06F FOG
NEW BERN       CLOUDY    63  57  81 CALM      30.07S
RICHLANDS      CLOUDY    61  57  88 CALM      30.07S
ROCKY MOUNT    CLOUDY    58  57  97 S3        30.04F
WASHINGTON     CLOUDY    58  58  97 CALM      30.05F
WHITEVILLE     CLOUDY    66  62  86 CALM      30.07R

$$

AMZ130-135-150-152-154-156-158-170-250-252-270-ANZ085-086-088-633-658-670-290300-
MARINE OBSERVATIONS

STATION/POSITION TIME  TEMP    WIND        PRES    WAVE   SWELL
                       AIR SEA DIR/SP/G            HT/PER HT/PER
                 (UTC) (F)     (DEG/KT/KT) (MB)    (FT/S) (FT/S)
CHESAPEAKE LIGHT 0200   56     220/  8/  8 1017.6
64 E VA BEACH    0200   55 53  250/  4/  4 1016.7    3/13   3/13
DUCK             0200   58 50  250/  6/  7 1016.5
2 E DUCK         0200      49                N/A     2/13   2/13
10 NE DUCK       0200      50                N/A     2/14   2/14
OREGON INLET     0200   58 53  270/  4/  6 1017.8
13E OREGON INLT  0200      55                N/A     2/13   2/13
HATTERAS CG      0200   58 56  300/  2/  3 1018.2
DIAMOND BUOY     0200   68                 1017.7    3/13
17 S OCRACOKE    NOT AVBL
CAPE LOOKOUT     0200   62     270/  8/ 11 1018.0
BEAUFORT LAB     0200   61 56  200/  4/  4 1016.8
30 SE NEW RIVER  0200   63 60  240/  8/ 10 1018.4    2/13   2/13
5 SE WRIGHTSVLE  NOT AVBL
225 S CAPE HAT   0112   74 74  220/ 17/ 19 1020.7    5/12   3/12
41 SE CHARLESTON 0200   73 74  210/ 14/ 17 1018.1    3/13   2/13

$$



USA.gov is the U.S. government's official web portal to all federal, state and local government web resources and services.